Location: Bastelaar
(51.0950°N, 3.8602°E)
Time: 18:03:55
(UTC+00:00)

SJ 16-02 - Pass Details

Date: 18 November 2025
Orbit: 585 x 594 km, 75.0° (Epoch: 10 December)

Event Time Altitude Azimuth Distance (km) Brightness Sun altitude
Rises 16:40:58 0° 149° (SSE) 2,825 4.7 -7.6°
Reaches altitude 10° 16:44:13 10° 123° (ESE) 1,930 3.6 -8.1°
Maximum altitude 16:46:16 13° 94° (E) 1,727 3.1 -8.4°
Enters shadow 16:47:51 11° 71° (ENE) 1,855 3.1 -8.7°
